NOAA 16 DEB, 41366

Orbit data source: Space-Track

NOAA 16 DEB, 41366 is space debris in SSO originally from a launch on Thu, 21 Sep 2000 UTC launched from the Air Force Western Test Range (AFWTR). Debris objects in space refer to the collection of defunct objects orbiting the Earth. Examples of debris include non-operational satellites, rocket bodies, and fragments generated from explosions, collisions, or faulty payload assembly.

Loading next visibility...
Identifier
41366, 2000-055JK
Orbit
SSO
Country
Flag of USUS
Related business
Manufacturer
Unknown
Mission
Spacecraft
Bus & Motor
Unknown
Mass
Unknown
Launch date (UTC)
2000-09-21 (26 years ago)
Launch vehicle
Unknown
Launch site
Air Force Western Test Range (AFWTR)
Object type
Payload
Rocket body
Debris
Shape & HBR
Unknown shape, 0.1 m
Radar Cross Section
Small (<0.1 m²)

Expand to show TLE details & history
Last TLE update: 20 hours ago

TLE from 20 hours ago
0 NOAA 16 DEB
1 41366U 00055JK  26264.56657672  .00006233  00000-0  18631-2 0  9999
2 41366  98.9378  26.9255 0022620 314.3315  45.6018 14.43146379547795
Epoch: 2026-09-21T13:35Z
TLE epoch observation values (Epoch: 2026-09-21T13:35:52.228Z)
Latitude
-0.00013°
Longitude
-177.48666°
Altitude
739.799 km
Speed
7.491 km/s
True Right ascension
01h 47m 42s
True Declination
0° 00' 00"
Sunlit
Object was in full shadow at epoch
Visualization orbit readout
Latitude
Unknown
Longitude
Unknown
Altitude
Unknown
Speed
Unknown
Apparent Right ascension
Unknown
Apparent Declination
Unknown
Sunlit
N/A
Visualization observer readout
Local Sidereal Time
02:23:31
Azimuth
Unknown
Elevation
Unknown
Doppler factor
Unknown
Orbital elements
Apogee altitude
761.374 km
Perigee altitude
729.147 km
Semi-major axis
7,123.398 km
Eccentricity
0.00226
Inclination
98.9378°
RAAN
26.9255°
Arg. of periapsis
314.3315°
True anomaly
45.78737°
Mean anomaly
45.6018°
Eccentric anomaly
45.69455°
Mean motion
3.61004 °/min
Orbital period
99.72 mins
BSTAR
0.0018631
Loading maneuver chart data...
Computing Atmospheric mass density...
Loading historical data...
Loading historical data...
Loading historical data...
Loading historical data...
Loading historical data...
Loading historical data...
Loading historical data...

Documentation

Showing up to 5 results
|